Other Public Products
Issued by NWS Grand Forks, ND

Home | Current Version | Previous Version | Graphics & Text | Print | Product List | Glossary On
Versions: 1 2 3 4 5 6 7 8 9 10 11 12 13 14 15 16 17 18 19 20 21 22 23 24 25 26 27 28 29 30 31 32 33 34 35 36 37 38 39 40 41 42 43 44 45 46 47 48 49 50
000
FPUS83 KFGF 281910
OPUFGF
PRAIRIE TO PINES WEATHER ROUNDUP
NATIONAL WEATHER SERVICE EASTERN NORTH DAKOTA/GRAND FORKS ND
200 PM CDT SAT MAY 28 2016

 **SATELLITE DATA USED TO AUGMENT SKY COVER AT AUTOMATED STATIONS**
 *****  WEATHER ACROSS EASTERN NORTH DAKOTA  *****

CITY           SKY/WX    TMP DP  RH WIND       PRES   REMARKS
GRAND FORKS    CLOUDY    72  54  53 N8        29.82S
GRAND FORKS AF CLOUDY    70  56  61 NE8       29.83S
GRAND CITY NWS   N/A     72 N/A N/A NE5         N/A
BUXTON           N/A     72  60  65 NE6         N/A
DEVILS LAKE    PTSUNNY   64  57  78 NW8       29.87F
FARGO          CLOUDY    71  57  61 N12       29.79S
WAHPETON ARPT  CLOUDY    68  50  52 N12       29.80R
$$

 *****  WEATHER ACROSS CENTRAL AND WESTERN NORTH DAKOTA  *****

CITY           SKY/WX    TMP DP  RH WIND       PRES   REMARKS
JAMESTOWN      CLOUDY    66  57  72 N13       29.84F
BISMARCK       CLOUDY    67  55  65 NE7       29.87S
MINOT          CLOUDY    65  53  65 NE6       29.88F
MINOT AFB      CLOUDY    63  53  71 NE7       29.88F
GARRISON         N/A     63  53  70 E7        29.89F
WILLISTON      CLOUDY    67  52  58 E8        29.87F
DICKINSON      MOSUNNY   69  46  43 E9        29.84F
HETTINGER      CLOUDY    72  46  39 E5        29.87F
$$

 *****  OTHER OBSERVATIONS NORTHEAST NORTH DAKOTA  *****

CITY           SKY/WX    TMP DP  RH WIND       PRES   REMARKS
WALHALLA       FAIR      68  68 100 N9        29.86F
LANGDON        MOCLDY    66  57  72 NE7       29.88S
CAVALIER       FAIR      68  59  73 N8        29.85S
GRAFTON        FAIR      70  57  64 N7        29.85S
CANDO          CLOUDY    63  59  88 N8        29.91S
FORT TOTTEN      N/A     68  61  78 NW5       29.95
ROLLA          MOCLDY    57  57 100 N10       29.91F
RUGBY          MOCLDY    63  55  77 NE8       29.89S
 ***** THE ABOVE OBSERVATIONS ARE NON NWS ARE NOT QUALITY
        CONTROLLED AND MAY MIS-REPORT RAIN FOR SNOW...
$$

 *****  OTHER OBSERVATIONS SOUTHEAST NORTH DAKOTA *****

CITY           SKY/WX    TMP DP  RH WIND       PRES   REMARKS
COOPERSTOWN    NOT AVBL
VALLEY CITY    MOCLDY    66  63  88 N8        29.85F
OAKES            N/A    N/A N/A N/A MISG        N/A
GWINNER        MOCLDY    70  57  64 N10       29.82S
SHEYENNE NWR     N/A     70  55  59 N8        29.95S
BUFFALO          N/A     70  49  48 NE10        N/A
WYNDMERE         N/A     68  55  64 NE10        N/A
 ***** THE ABOVE OBSERVATIONS ARE NON NWS ARE NOT QUALITY
       CONTROLLED AND MAY MIS-REPORT RAIN FOR SNOW...
$$

  *****  WEATHER ACROSS NORTHERN MINNESOTA  *****

CITY           SKY/WX    TMP DP  RH WIND       PRES   REMARKS
FLAG ISLAND    CLOUDY    63  55  77 NE16      29.86S
WARROAD        LGT RAIN  63  59  88 NE9       29.85F
ROSEAU         PTSUNNY   66  59  77 NE10      29.84F
HALLOCK        PTSUNNY   72  55  56 NE6       29.83F
THF RVR FALLS  CLOUDY    66  54  63 N12       29.84S
HALSTAD        NOT AVBL
FOSSTON        CLOUDY    61  57  88 NE7       29.82F
BAUDETTE       CLOUDY    62  57  83 NE7       29.83S
WASKISH        CLOUDY    61  57  88 NE10      29.81F
CROOKSTON      CLOUDY    68  54  60 NE10      29.83S
$$
  *****  WEATHER ACROSS CENTRAL AND WEST MINNESOTA  *****

CITY           SKY/WX    TMP DP  RH WIND       PRES   REMARKS
BEMIDJI        CLOUDY    60  56  85 N7        29.80S
PARK RAPIDS    CLOUDY    62  55  77 N6        29.79S
WADENA         CLOUDY    61  54  77 N5        29.79F
DETROIT LAKES  CLOUDY    63  55  77 N5        29.81S
MOORHEAD       CLOUDY    66  57  72 N12       29.80F
FERGUS FALLS   CLOUDY    64  54  68 NE7       29.76S
ELBOW LAKE     CLOUDY    64  56  73 E3        29.80R
MORRIS MN      DRIZZLE   66  59  77 CALM      29.79S
STAPLES        CLOUDY    61  54  77 CALM      29.80S
WHEATON        CLOUDY    70  55  60 NW7       29.81S
$$
  *****  WEATHER ELSEWHERE ACROSS MINNESOTA  *****

CITY           SKY/WX    TMP DP  RH WIND       PRES   REMARKS
DULUTH         CLOUDY    56  52  86 N5        29.78S
INTRNTL FALLS  CLOUDY    61  57  88 NE8       29.81F FOG
ELY            DRIZZLE   59  57  94 CALM      29.80R
CLOQUET        CLOUDY    55  54  94 CALM      29.78F
BRAINERD       CLOUDY    60  56  86 CALM      29.80S
HIBBING        CLOUDY    59  57  93 SE6       29.79S
ALEXANDRIA     CLOUDY    63  55  75 N3        29.81S
SAINT CLOUD    LGT RAIN  60  58  92 CALM      29.79S
MINNEAPOLIS    CLOUDY    67  60  78 NW9       29.76F
$$

  *****  WEATHER ACROSS SOUTH DAKOTA  *****

CITY           SKY/WX    TMP DP  RH WIND       PRES   REMARKS
SIOUX FALLS    PTSUNNY   69  60  73 NE14G20   29.76S
BROOKINGS      LGT RAIN  61  59  93 NE8       29.79F
WATERTOWN      CLOUDY    63  56  78 NE9       29.81S
HURON          LGT RAIN  62  60  93 N7        29.81R
SISSETON         N/A     69  52  54 NE6       29.79F
ABERDEEN       LGT RAIN  66  59  78 N5        29.83S
MITCHELL       LGT RAIN  64  60  87 NW9       29.81R
PIERRE         CLOUDY    72  54  53 N12       29.84S
MOBRIDGE       CLOUDY    74  50  42 NW7       29.83F
RAPID CITY     LGT RAIN  57  53  86 W9        29.95R FOG
$$

  *****  SOME WEATHER IN NEARBY STATES *****

CITY           SKY/WX    TMP DP  RH WIND       PRES   REMARKS
GLASGOW MT     MOSUNNY   62  49  62 NW12      29.91S
GREAT FALLS MT PTSUNNY   61  26  26 SW20G28   29.98S
CHEYENNE WY    CLOUDY    64  34  32 MISG      30.03F
SCOTTSBLUFF NE SUNNY     73  44  35 W9        29.95F
OMAHA NE       PTSUNNY   71  56  58 SW17G26   29.79R
DES MOINES IA  LGT RAIN  67  63  87 SW10      29.79S FOG
DAVENPORT IA   MOSUNNY   80  65  59 S21       29.83F
CHICAGO IL     CLOUDY    77  65  66 S16G25    29.92S
EAU CLAIRE WI  LGT RAIN  67  66  97 S7        29.77R FOG
LA CROSSE WI   PTSUNNY   78  64  61 S13       29.77F
$$

  *****  SOME NATIONAL WEATHER *****

CITY           SKY/WX    TMP DP  RH WIND       PRES   REMARKS
LA GUARDIA NY  MOSUNNY   89  71  55 S16       30.08F HX  95
RALEIGH NC     MOSUNNY   85  57  38 NE6       30.16F
ATLANTA GA     MOSUNNY   85  51  31 E10G17    30.11F
NEW ORLEANS LA PTSUNNY   86  71  60 S9        30.02S HX  91
OKLAHOMA CITY  MOSUNNY   80  60  50 W3        29.95F
ALBUQUERQUE NM MOSUNNY   76  23  14 S8        30.08F
SALT LAKE CITY MOSUNNY   69  42  37 MISG      30.03F
LOS ANGELES CA CLOUDY    64  56  75 W8        29.91S
BOISE ID       SUNNY     63  29  27 N10G20    30.08F
SEATTLE WA     LGT RAIN  58  47  66 S15       30.07F
$$

*** WEATHER ACROSS MANITOBA...SASKATCHEWAN AND ONTARIO ***
                ***ONTARIO***

CITY           SKY/WX    TMP DP  RH WIND       PRES   REMARKS
GERALDTON      DRZL/FOG  57  57 100 E13G23    29.90F VSB 1
THUNDER BAY    CLOUDY    61  59  94 E16       29.80S
SIOUX LOOKOUT  DRIZZLE   55  52  88 NE6       29.91F
TORONTO        MOSUNNY   88  64  45 SE13      30.04F
BIG TROUT LK   CLOUDY    50  39  66 E10G17    30.16F
PICKLE LAKE    CLOUDY    50  45  81 NE12G24   30.02F
DRYDEN         CLOUDY    55  54  94 NE15G22   29.88F
KENORA         CLOUDY    59  54  82 NE10G18   29.90F
$$
                *** MANITOBA***

CITY           SKY/WX    TMP DP  RH WIND       PRES   REMARKS
BRANDON        CLOUDY    55  52  88 E12       29.94S
DAUPHIN        CLOUDY    50  48  93 NE10      29.98F
ISLAND LAKE    NOT AVBL
PILOT MOUND      N/A     59  57  94 N8          N/A
THE PAS        CLOUDY    52  43  71 NE8       30.07F
THOMPSON       CLOUDY    43  36  75 E5        30.17F
WINNIPEG       PTSUNNY   64  59  82 NE14G20   29.89F
LYNN LAKE      CLOUDY    41  36  81 E10       30.14F
CHURCHILL      MOSUNNY   45  34  65 S6        30.32F
GILLAM         CLOUDY    43  34  70 NE8       30.23F
$$
                ***SASKATCHEWAN***

CITY           SKY/WX    TMP DP  RH WIND       PRES   REMARKS
ESTEVAN        CLOUDY    57  52  82 E12       29.92S
KINDERSLEY     LGT RAIN  50  48  93 NE7       29.87F
LLOYDMINSTER   LGT RAIN  52  50  93 S3        29.87F
PRINCE ALBERT  CLOUDY    55  46  71 SE10G18   29.96F
REGINA         CLOUDY    61  50  67 SE14      29.91F
YORKTON        CLOUDY    55  46  71 E6        29.96S   C1F1C2F2C3F3C4F4C5F5C6F6C7F7C8F8C9F9CaFaCbFbCcFcCdFdCe!



USA.gov is the U.S. government's official web portal to all federal, state and local government web resources and services.